Location: Decatur Area Astronomy Club
(40.0275°N, 88.7810°W)
Time: 02:40:21
(UTC-05:00)

Amateur Radio Satellites - All Passes

Search period start: 26 October 2014 02:10
Search period end: 27 October 2014 02:10
Location: Decatur Area Astronomy Club, 40.0275°N, 88.7810°W

Satellite Date Start Highest point End Downlink Frequencies (MHz)
Time Altitude Azimuth
Oscar 16 26 Oct 02:10:16 02:15:14 49° 100° (E) 02:20:11 437.025 USB, Beacon 2401.1428
Uribyol 2 26 Oct 02:32:19 02:37:01 33° 97° (E) 02:41:39 436.500 FM
PCSat 26 Oct 02:35:08 02:38:40 18° 105° (ESE) 02:42:12 145.825 MHz
ITAMSAT 1 26 Oct 02:38:36 02:43:24 36° 98° (E) 02:48:09 435.822 SSB
RS-15 26 Oct 02:45:44 02:52:50 19° 354° (N) 03:00:01 29.354 - 29.394 USB, Beacon 29.352 USB
JAS-1B 26 Oct 03:02:47 03:09:33 78° 286° (WNW) 03:17:40 435.800 - 435.900 CW/SSB
Oscar 19 26 Oct 03:03:33 03:08:30 52° 288° (WNW) 03:13:27 437.125 CW, 437.150 USB
Gurwin Techsat 1B 26 Oct 03:05:48 03:10:39 35° 97° (E) 03:15:27 435.225 FM
TMSAT-1 26 Oct 03:16:16 03:21:00 32° 96° (E) 03:25:42 436.925 FM
AO-27 26 Oct 03:24:17 03:29:33 83° 285° (WNW) 03:34:45 436.795 MHz FM
AO-7 26 Oct 03:24:40 03:26:33 11° 87° (E) 03:28:26 29.400 - 29.500 MHz
AO-Echo 26 Oct 03:34:12 03:39:21 51° 288° (WNW) 03:44:27 ?
Oscar 16 26 Oct 03:50:34 03:54:12 20° 296° (WNW) 03:57:50 437.025 USB, Beacon 2401.1428
Sapphire 26 Oct 03:53:42 03:59:06 82° 117° (ESE) 04:04:33 437.095 MHz 1200 baud AX-25 AFSK
Uribyol 2 26 Oct 04:11:55 04:16:22 29° 293° (WNW) 04:20:47 436.500 FM
PCSat 26 Oct 04:16:12 04:21:32 61° 302° (WNW) 04:26:56 145.825 MHz
ITAMSAT 1 26 Oct 04:18:22 04:22:43 28° 294° (WNW) 04:27:04 435.822 SSB
OPAL 26 Oct 04:33:05 04:37:45 36° 67° (ENE) 04:42:22 ?
Gurwin Techsat 1B 26 Oct 04:45:57 04:50:28 29° 293° (WNW) 04:54:59 435.225 FM
JAS-1B 26 Oct 04:56:11 04:59:24 14° 302° (WNW) 05:02:51 435.800 - 435.900 CW/SSB
TMSAT-1 26 Oct 04:56:13 05:00:50 31° 293° (WNW) 05:05:26 436.925 FM
RS-15 26 Oct 05:01:26 05:10:34 28° 31° (NNE) 05:19:55 29.354 - 29.394 USB, Beacon 29.352 USB
JAS-2 26 Oct 05:02:38 05:08:09 21° 89° (E) 05:13:36 435.800 - 435.900 CW/SSB, 435.910 FM
AO-27 26 Oct 05:07:02 05:08:12 11° 302° (WNW) 05:09:21 436.795 MHz FM
AO-7 26 Oct 05:12:25 05:20:44 68° 105° (ESE) 05:29:01 29.400 - 29.500 MHz
Uosat F 26 Oct 05:20:10 05:25:13 70° 102° (ESE) 05:30:14 435.120 FM
Hamsat 26 Oct 05:38:52 05:41:00 14° 91° (E) 05:43:07 145.90 MHz
Sapphire 26 Oct 05:39:43 05:43:12 17° 316° (NW) 05:46:42 437.095 MHz 1200 baud AX-25 AFSK
PCSat 26 Oct 06:04:26 06:06:07 11° 322° (NW) 06:07:47 145.825 MHz
OPAL 26 Oct 06:12:21 06:16:39 27° 262° (W) 06:20:56 ?
STRAND 1 26 Oct 06:19:38 06:24:22 39° 69° (ENE) 06:29:08 ?
Saudisat 1A 26 Oct 06:24:31 06:27:30 18° 110° (ESE) 06:30:30 436.775 MHz
JAS-2 26 Oct 06:45:59 06:53:50 81° 286° (WNW) 07:01:36 435.800 - 435.900 CW/SSB, 435.910 FM
Uosat F 26 Oct 07:00:42 07:03:24 15° 299° (WNW) 07:06:05 435.120 FM
AO-7 26 Oct 07:06:09 07:12:51 29° 303° (WNW) 07:19:35 29.400 - 29.500 MHz
Hamsat 26 Oct 07:13:09 07:17:11 47° 287° (WNW) 07:21:14 145.90 MHz
RS-15 26 Oct 07:13:43 07:24:58 80° 57° (ENE) 07:36:41 29.354 - 29.394 USB, Beacon 29.352 USB
SO-67 26 Oct 07:26:47 07:29:45 26° 96° (E) 07:32:41 435.3500 MHz FM
PANSAT 26 Oct 07:58:30 08:00:32 14° 175° (S) 08:02:34 not established
STRAND 1 26 Oct 07:59:33 08:03:39 24° 265° (W) 08:07:47 ?
Saudisat 1A 26 Oct 08:02:30 08:06:43 45° 307° (NW) 08:10:58 436.775 MHz
HO-68 26 Oct 08:16:56 08:19:10 12° 87° (E) 08:21:25 435.675 MHz FM
JAS-2 26 Oct 08:32:54 08:37:41 18° 304° (WNW) 08:42:31 435.800 - 435.900 CW/SSB, 435.910 FM
MaSat-1 26 Oct 08:59:02 09:01:32 45° 62° (ENE) 09:03:51 437.345 MHz
SO-67 26 Oct 09:00:19 09:02:30 16° 291° (WNW) 09:04:42 435.3500 MHz FM
RS-15 26 Oct 09:27:26 09:36:11 27° 257° (WSW) 09:45:16 29.354 - 29.394 USB, Beacon 29.352 USB
Oscar 11 26 Oct 09:35:00 09:37:15 14° 91° (E) 09:39:28 145.825 FM, Beacon 2401.500 USB
PANSAT 26 Oct 09:38:10 09:39:58 13° 188° (S) 09:41:46 not established
HO-68 26 Oct 10:00:43 10:07:56 76° 105° (ESE) 10:15:07 435.675 MHz FM
KITSAT 1 26 Oct 10:20:30 10:24:24 14° 99° (E) 10:28:18 435.175 FM
ZACube-1 26 Oct 10:27:54 10:31:13 22° 94° (E) 10:34:28 437.345 MHz
UKube-1 26 Oct 10:29:18 10:33:38 60° 101° (ESE) 10:37:56 145.840 MHz, 145.915 MHz
Oscar 10/S400 26 Oct 10:53:14 11:11:44 19° 153° (SSE) 11:23:59 145.825 - 145.975 CW/USB, Beacon 145.810 USB
Sapphire 26 Oct 11:01:54 11:03:07 11° 37° (NE) 11:04:20 437.095 MHz 1200 baud AX-25 AFSK
Oscar 11 26 Oct 11:09:32 11:13:41 48° 287° (WNW) 11:17:49 145.825 FM, Beacon 2401.500 USB
FUNcube-1 26 Oct 11:11:33 11:15:48 71° 102° (ESE) 11:19:56 145.950 - 145.970 MHz USB
PCSat 26 Oct 11:22:42 11:26:01 16° 43° (NE) 11:29:19 145.825 MHz
HO-68 26 Oct 11:49:45 11:54:53 22° 303° (WNW) 12:00:01 435.675 MHz FM
JAS-1B 26 Oct 12:03:35 12:05:01 11° 56° (NE) 12:06:26 435.800 - 435.900 CW/SSB
ZACube-1 26 Oct 12:03:57 12:07:37 29° 290° (WNW) 12:11:13 437.345 MHz
ISS 26 Oct 12:07:04 12:10:19 55° 139° (SE) 12:13:36 145.800 FM
UKube-1 26 Oct 12:07:19 12:09:17 13° 297° (WNW) 12:11:16 145.840 MHz, 145.915 MHz
KITSAT 1 26 Oct 12:10:26 12:18:30 80° 117° (ESE) 12:26:36 435.175 FM
SO-50 26 Oct 12:19:37 12:23:52 45° 116° (ESE) 12:28:16 436.795 FM
Oscar 19 26 Oct 12:41:36 12:45:45 25° 66° (ENE) 12:49:54 437.125 CW, 437.150 USB
Sapphire 26 Oct 12:42:24 12:47:46 57° 58° (ENE) 12:53:05 437.095 MHz 1200 baud AX-25 AFSK
FUNcube-1 26 Oct 12:51:14 12:51:32 10° 298° (WNW) 12:51:50 145.950 - 145.970 MHz USB
AO-27 26 Oct 13:04:35 13:08:01 18° 62° (ENE) 13:11:27 436.795 MHz FM
PCSat 26 Oct 13:04:43 13:10:10 88° 242° (WSW) 13:15:35 145.825 MHz
AO-Echo 26 Oct 13:09:02 13:12:50 23° 65° (ENE) 13:16:45 ?
Oscar 16 26 Oct 13:26:30 13:31:37 68° 74° (ENE) 13:36:44 437.025 USB, Beacon 2401.1428
UOSAT-12 26 Oct 13:34:30 13:38:14 25° 112° (ESE) 13:42:02 437.025 FM, 437.400 FM
ISS 26 Oct 13:44:29 13:47:13 23° 336° (NNW) 13:49:57 145.800 FM
JAS-1B 26 Oct 13:48:53 13:54:50 86° 75° (ENE) 14:00:32 435.800 - 435.900 CW/SSB
Uribyol 2 26 Oct 13:49:25 13:54:24 48° 71° (ENE) 13:59:25 436.500 FM
ITAMSAT 1 26 Oct 13:55:52 14:00:54 51° 71° (ENE) 14:05:58 435.822 SSB
SO-50 26 Oct 14:01:05 14:04:39 22° 315° (NW) 14:08:18 436.795 FM
KITSAT 1 26 Oct 14:08:08 14:14:46 27° 319° (NW) 14:21:27 435.175 FM
Oscar 19 26 Oct 14:20:06 14:24:53 38° 262° (W) 14:29:41 437.125 CW, 437.150 USB
AO-7 26 Oct 14:21:45 14:27:06 19° 51° (NE) 14:32:26 29.400 - 29.500 MHz
Gurwin Techsat 1B 26 Oct 14:26:10 14:31:17 52° 72° (ENE) 14:36:26 435.225 FM
Sapphire 26 Oct 14:26:56 14:30:42 19° 255° (WSW) 14:34:27 437.095 MHz 1200 baud AX-25 AFSK
TMSAT-1 26 Oct 14:36:17 14:41:20 47° 71° (ENE) 14:46:25 436.925 FM
AO-27 26 Oct 14:41:55 14:47:02 58° 259° (W) 14:52:12 436.795 MHz FM
AO-Echo 26 Oct 14:46:43 14:51:19 40° 262° (W) 14:56:05 ?
Saudisat 1A 26 Oct 14:51:10 14:53:54 16° 42° (NE) 14:56:37 436.775 MHz
PCSat 26 Oct 14:51:41 14:52:43 11° 259° (WSW) 14:53:44 145.825 MHz
Uosat F 26 Oct 14:58:25 14:59:45 11° 59° (ENE) 15:01:04 435.120 FM
Oscar 16 26 Oct 15:08:54 15:11:25 14° 270° (W) 15:13:57 437.025 USB, Beacon 2401.1428
UOSAT-12 26 Oct 15:13:50 15:18:11 38° 309° (NW) 15:22:36 437.025 FM, 437.400 FM
ISS 26 Oct 15:23:38 15:24:51 12° 356° (N) 15:26:04 145.800 FM
Uribyol 2 26 Oct 15:30:18 15:34:06 20° 267° (W) 15:37:56 436.500 FM
ITAMSAT 1 26 Oct 15:37:04 15:40:40 19° 267° (W) 15:44:17 435.822 SSB
Gurwin Techsat 1B 26 Oct 16:07:50 16:11:32 19° 268° (W) 16:15:16 435.225 FM
AO-7 26 Oct 16:10:25 16:18:41 84° 71° (ENE) 16:27:00 29.400 - 29.500 MHz
KITSAT 1 26 Oct 16:12:54 16:13:38 10° 347° (NNW) 16:14:22 435.175 FM
TMSAT-1 26 Oct 16:17:33 16:21:29 21° 267° (W) 16:25:25 436.925 FM
Saudisat 1A 26 Oct 16:29:31 16:33:56 70° 240° (WSW) 16:38:19 436.775 MHz
Uosat F 26 Oct 16:32:42 16:37:44 89° 76° (ENE) 16:42:48 435.120 FM
JAS-2 26 Oct 16:57:34 17:03:11 42° 67° (ENE) 17:09:32 435.800 - 435.900 CW/SSB, 435.910 FM
ISS 26 Oct 17:00:26 17:02:38 16° 17° (NNE) 17:04:49 145.800 FM
Hamsat 26 Oct 18:05:21 18:09:33 74° 258° (WSW) 18:13:45 145.90 MHz
AO-7 26 Oct 18:06:48 18:12:19 19° 268° (W) 18:17:53 29.400 - 29.500 MHz
KITSAT 1 26 Oct 18:10:48 18:13:44 12° 20° (NNE) 18:16:39 435.175 FM
OPAL 26 Oct 18:21:50 18:26:49 84° 106° (ESE) 18:31:45 ?
STRAND 1 26 Oct 18:32:30 18:35:01 14° 90° (E) 18:37:32 ?
ISS 26 Oct 18:36:30 18:39:50 67° 36° (NE) 18:43:08 145.800 FM
JAS-2 26 Oct 18:43:11 18:48:24 31° 268° (W) 18:54:13 435.800 - 435.900 CW/SSB, 435.910 FM
SO-67 26 Oct 19:30:54 19:34:15 52° 260° (W) 19:37:38 435.3500 MHz FM
OPAL 26 Oct 20:03:06 20:04:59 12° 303° (WNW) 20:06:52 ?
KITSAT 1 26 Oct 20:04:40 20:12:00 36° 47° (NE) 20:19:18 435.175 FM
STRAND 1 26 Oct 20:09:33 20:14:40 68° 286° (WNW) 20:19:46 ?
ISS 26 Oct 20:14:31 20:16:07 13° 231° (SW) 20:17:43 145.800 FM
HO-68 26 Oct 20:28:15 20:35:08 53° 68° (ENE) 20:42:05 435.675 MHz FM
Oscar 11 26 Oct 20:30:57 20:32:12 11° 62° (ENE) 20:33:26 145.825 FM, Beacon 2401.500 USB
SO-50 26 Oct 20:51:35 20:56:06 38° 51° (NE) 21:00:39 436.795 FM
ZACube-1 26 Oct 21:23:58 21:27:12 19° 67° (ENE) 21:30:24 437.345 MHz
UKube-1 26 Oct 21:23:58 21:28:08 48° 72° (ENE) 21:32:21 145.840 MHz, 145.915 MHz
RS-15 26 Oct 21:36:19 21:46:53 55° 112° (ESE) 21:57:21 29.354 - 29.394 USB, Beacon 29.352 USB
KITSAT 1 26 Oct 21:59:53 22:07:43 56° 247° (WSW) 22:15:31 435.175 FM
Oscar 11 26 Oct 22:03:29 22:07:47 69° 259° (WSW) 22:12:06 145.825 FM, Beacon 2401.500 USB
UOSAT-12 26 Oct 22:04:20 22:07:58 22° 45° (NE) 22:11:34 437.025 FM, 437.400 FM
FUNcube-1 26 Oct 22:06:44 22:11:11 53° 74° (ENE) 22:15:34 145.950 - 145.970 MHz USB
HO-68 26 Oct 22:17:07 22:23:06 29° 265° (W) 22:29:09 435.675 MHz FM
SO-50 26 Oct 22:32:26 22:36:31 27° 247° (WSW) 22:40:37 436.795 FM
MaSat-1 26 Oct 22:34:46 22:37:47 20° 108° (ESE) 22:40:38 437.345 MHz
ZACube-1 26 Oct 22:58:58 23:03:17 41° 262° (W) 23:07:34 437.345 MHz
UKube-1 26 Oct 23:02:10 23:04:35 15° 268° (W) 23:07:00 145.840 MHz, 145.915 MHz
UOSAT-12 26 Oct 23:43:50 23:48:25 51° 243° (WSW) 23:52:53 437.025 FM, 437.400 FM
FUNcube-1 26 Oct 23:45:23 23:47:49 14° 269° (W) 23:50:15 145.950 - 145.970 MHz USB
RS-15 26 Oct 23:49:04 23:59:26 46° 315° (NW) 00:09:52 29.354 - 29.394 USB, Beacon 29.352 USB
MaSat-1 27 Oct 00:09:37 00:13:13 30° 300° (WNW) 00:16:30 437.345 MHz
JAS-1B 27 Oct 01:32:00 01:37:48 27° 96° (E) 01:44:24 435.800 - 435.900 CW/SSB
Oscar 16 27 Oct 01:39:30 01:43:41 25° 95° (E) 01:47:50 437.025 USB, Beacon 2401.1428
